Terminal Aerodrome Forecast
Issued by NWS Jackson, MS

Home | Current Version | Previous Version | Text Only | Print | Product List | Glossary On
Versions: 1 2 3 4 5 6 7 8 9 10 11 12 13
000
FTUS44 KJAN 311100
TAFHBG
TAF
KHBG 311120Z 3112/0112 13004KT P6SM SCT150
     FM010800 14003KT 4SM BR BKN012 BKN030=

USA.gov is the U.S. government's official web portal to all federal, state and local government web resources and services.